AFL1061 UWOR-UUEE

Flight info

Callsign AFL1061
Flight time N/A
Altitude 34000
Route N0460F340 LALEP T750 OKSUD T787 OTKOL T784 LARNO T291 URIDU L158 DIMGI
Aircraft B738/M-V/N

Departure

Time 2026-04-12 18:24
Airport Orsk Airport (UWOR)

Arrival

Time N/A
Airport Sheremetyevo International Airport (UUEE)
Time Latitude Longitude Altitude Speed Heading
2026-04-12 17:54 51.07588 58.59340 895 ft 0 kts 77°
2026-04-12 18:15 51.07589 58.59347 895 ft 2 kts 79°
2026-04-12 18:16 51.07589 58.59366 895 ft 2 kts 91°
2026-04-12 18:16 51.07587 58.59384 895 ft 2 kts 107°
2026-04-12 18:16 51.07574 58.59402 895 ft 3 kts 159°
2026-04-12 18:16 51.07555 58.59410 895 ft 3 kts 163°
2026-04-12 18:17 51.07533 58.59421 895 ft 3 kts 163°
2026-04-12 18:17 51.07510 58.59430 895 ft 3 kts 166°
2026-04-12 18:17 51.07472 58.59445 895 ft 8 kts 167°
2026-04-12 18:17 51.07417 58.59466 895 ft 8 kts 166°
2026-04-12 18:18 51.07364 58.59486 897 ft 8 kts 166°
2026-04-12 18:18 51.07312 58.59506 898 ft 8 kts 166°
2026-04-12 18:18 51.07261 58.59512 896 ft 8 kts 195°
2026-04-12 18:18 51.07253 58.59508 896 ft 2 kts 202°
2026-04-12 18:19 51.07244 58.59495 896 ft 2 kts 228°
2026-04-12 18:19 51.07237 58.59468 896 ft 4 kts 249°
2026-04-12 18:19 51.07227 58.59410 897 ft 7 kts 257°
2026-04-12 18:19 51.07214 58.59328 898 ft 9 kts 256°
2026-04-12 18:20 51.07197 58.59218 899 ft 12 kts 256°
2026-04-12 18:20 51.07175 58.59070 901 ft 15 kts 256°
2026-04-12 18:20 51.07152 58.58918 909 ft 14 kts 257°
2026-04-12 18:20 51.07130 58.58769 909 ft 14 kts 256°
2026-04-12 18:21 51.07103 58.58600 911 ft 17 kts 256°
2026-04-12 18:21 51.07078 58.58418 912 ft 18 kts 257°
2026-04-12 18:21 51.07045 58.58205 911 ft 21 kts 256°
2026-04-12 18:21 51.07009 58.57962 912 ft 25 kts 259°
2026-04-12 18:22 51.06981 58.57750 910 ft 14 kts 257°
2026-04-12 18:22 51.06983 58.57656 916 ft 4 kts 320°
2026-04-12 18:22 51.07001 58.57612 917 ft 5 kts 268°
2026-04-12 18:22 51.06972 58.57613 915 ft 6 kts 125°
2026-04-12 18:23 51.06970 58.57690 912 ft 0 kts 77°
2026-04-12 18:23 51.06984 58.57780 912 ft 36 kts 77°
2026-04-12 18:23 51.07095 58.58551 912 ft 105 kts 77°
2026-04-12 18:23 51.07312 58.60001 903 ft 162 kts 77°
2026-04-12 18:24 51.07608 58.61848 1388 ft 174 kts 74°
2026-04-12 18:24 51.07751 58.63685 2172 ft 171 kts 110°
2026-04-12 18:24 51.06969 58.65259 2233 ft 202 kts 153°
2026-04-12 18:24 51.05554 58.65751 2382 ft 225 kts 184°
2026-04-12 18:25 51.04037 58.64854 2621 ft 247 kts 215°
2026-04-12 18:25 51.03064 58.62590 2809 ft 247 kts 250°
2026-04-12 18:25 51.03153 58.59899 2737 ft 248 kts 289°
2026-04-12 18:25 51.03994 58.57494 2742 ft 254 kts 299°
2026-04-12 18:26 51.04995 58.55097 3089 ft 272 kts 300°
2026-04-12 18:26 51.06029 58.52577 4000 ft 270 kts 299°
2026-04-12 18:26 51.07023 58.50044 4948 ft 271 kts 298°
2026-04-12 18:26 51.07996 58.47456 5748 ft 275 kts 297°
2026-04-12 18:27 51.08959 58.44802 6577 ft 278 kts 297°
2026-04-12 18:27 51.09911 58.42112 7387 ft 280 kts 296°
2026-04-12 18:27 51.10858 58.39390 8192 ft 282 kts 296°
2026-04-12 18:27 51.11803 58.36641 9029 ft 284 kts 296°
2026-04-12 18:28 51.12750 58.33862 9854 ft 286 kts 296°
2026-04-12 18:28 51.13701 58.31055 10561 ft 292 kts 296°
2026-04-12 18:28 51.14699 58.28093 10768 ft 316 kts 296°
2026-04-12 18:28 51.15772 58.24896 10996 ft 337 kts 296°
2026-04-12 18:29 51.16892 58.21559 11548 ft 345 kts 296°
2026-04-12 18:29 51.18025 58.18180 12306 ft 347 kts 296°
2026-04-12 18:29 51.19163 58.14779 13085 ft 349 kts 296°
2026-04-12 18:29 51.20309 58.11349 13835 ft 351 kts 296°
2026-04-12 18:30 51.21447 58.07935 14484 ft 355 kts 296°
2026-04-12 18:30 51.22608 58.04447 15127 ft 358 kts 296°
2026-04-12 18:30 51.23777 58.00928 15772 ft 361 kts 296°
2026-04-12 18:30 51.24958 57.97374 16410 ft 364 kts 296°
2026-04-12 18:31 51.26148 57.93784 17042 ft 367 kts 296°
2026-04-12 18:31 51.27341 57.90167 17685 ft 370 kts 295°
2026-04-12 18:31 51.28451 57.86441 18305 ft 373 kts 292°
2026-04-12 18:31 51.29508 57.82643 18847 ft 376 kts 291°
2026-04-12 18:32 51.30569 57.78813 19412 ft 378 kts 292°
2026-04-12 18:32 51.31648 57.74970 19976 ft 380 kts 292°
2026-04-12 18:32 51.32744 57.71093 20504 ft 383 kts 292°
2026-04-12 18:32 51.33842 57.67201 21023 ft 386 kts 292°
2026-04-12 18:33 51.34948 57.63265 21534 ft 389 kts 292°
2026-04-12 18:33 51.36059 57.59299 22028 ft 392 kts 292°
2026-04-12 18:33 51.37175 57.55304 22525 ft 395 kts 292°
2026-04-12 18:33 51.38301 57.51271 23022 ft 398 kts 292°
2026-04-12 18:34 51.39431 57.47216 23508 ft 401 kts 292°
2026-04-12 18:34 51.40569 57.43128 23927 ft 403 kts 292°
2026-04-12 18:34 51.41712 57.39010 24346 ft 405 kts 291°
2026-04-12 18:34 51.42842 57.34937 24773 ft 406 kts 291°
2026-04-12 18:35 51.43991 57.30787 25194 ft 407 kts 291°
2026-04-12 18:35 51.45138 57.26635 25596 ft 409 kts 291°
2026-04-12 18:35 51.45528 57.25224 25729 ft 409 kts 291°
2026-04-12 18:37 51.53359 56.96665 28225 ft 420 kts 291°
2026-04-12 18:37 51.54137 56.93812 28444 ft 421 kts 291°
2026-04-12 18:37 51.55706 56.88038 28905 ft 423 kts 290°
2026-04-12 18:37 51.56883 56.83700 29236 ft 424 kts 290°
2026-04-12 18:38 51.58058 56.79361 29686 ft 422 kts 290°
2026-04-12 18:38 51.59226 56.75044 30220 ft 419 kts 290°
2026-04-12 18:38 51.60380 56.70768 30653 ft 416 kts 290°
2026-04-12 18:38 51.61531 56.66496 31003 ft 415 kts 290°
2026-04-12 18:39 51.62676 56.62236 31333 ft 415 kts 290°
2026-04-12 18:39 51.63852 56.58003 31702 ft 414 kts 291°
2026-04-12 18:39 51.65130 56.53851 32079 ft 413 kts 293°
2026-04-12 18:39 51.66444 56.49759 32427 ft 412 kts 293°
2026-04-12 18:40 51.67318 56.47055 32647 ft 411 kts 293°
2026-04-12 18:40 51.68632 56.42970 32984 ft 410 kts 293°
2026-04-12 18:40 51.69932 56.38886 33314 ft 408 kts 292°
2026-04-12 18:40 51.71220 56.34806 33594 ft 408 kts 292°
2026-04-12 18:41 51.72915 56.29403 34005 ft 407 kts 292°
2026-04-12 18:41 51.75055 56.22561 34085 ft 408 kts 292°
2026-04-12 18:42 51.77603 56.14386 34091 ft 407 kts 292°
2026-04-12 18:42 51.80153 56.06154 34182 ft 414 kts 291°
2026-04-12 18:43 51.84022 55.93613 34704 ft 417 kts 292°
2026-04-12 18:43 51.85314 55.89418 34926 ft 417 kts 292°
2026-04-12 18:43 51.86605 55.85213 35107 ft 418 kts 292°
2026-04-12 18:44 51.87897 55.80999 35281 ft 418 kts 292°
2026-04-12 18:44 51.89191 55.76771 35473 ft 418 kts 292°
2026-04-12 18:44 51.90480 55.72552 35679 ft 418 kts 292°
2026-04-12 18:44 51.91770 55.68322 35829 ft 419 kts 292°
2026-04-12 18:45 51.93066 55.64062 35861 ft 423 kts 292°
2026-04-12 18:45 51.95687 55.55422 35967 ft 430 kts 292°
2026-04-12 18:45 51.97007 55.51063 36075 ft 431 kts 292°
2026-04-12 18:46 51.98327 55.46698 36252 ft 431 kts 292°
2026-04-12 18:46 51.99647 55.42328 36439 ft 431 kts 292°
2026-04-12 18:46 52.00947 55.38012 36594 ft 431 kts 292°
2026-04-12 18:46 52.02261 55.33641 36735 ft 432 kts 292°
2026-04-12 18:47 52.03578 55.29253 36876 ft 432 kts 292°
2026-04-12 18:47 52.04893 55.24862 37044 ft 432 kts 292°
2026-04-12 18:47 52.06207 55.20466 37202 ft 432 kts 292°
2026-04-12 18:47 52.07519 55.16072 37337 ft 433 kts 292°
2026-04-12 18:48 52.08830 55.11667 37489 ft 433 kts 292°
2026-04-12 18:48 52.10140 55.07264 37644 ft 433 kts 292°
2026-04-12 18:48 52.11452 55.02841 37777 ft 433 kts 292°
2026-04-12 18:48 52.12761 54.98422 37914 ft 433 kts 292°
2026-04-12 18:49 52.14063 54.94021 38035 ft 431 kts 292°
2026-04-12 18:49 52.16669 54.85183 38073 ft 433 kts 292°
2026-04-12 18:50 52.19274 54.76312 38080 ft 435 kts 292°
2026-04-12 18:50 52.21882 54.67399 38077 ft 435 kts 292°
2026-04-12 18:51 52.24473 54.58516 38072 ft 432 kts 292°
2026-04-12 18:51 52.27045 54.49663 38072 ft 432 kts 291°
2026-04-12 18:52 52.29618 54.40769 38072 ft 435 kts 291°
2026-04-12 18:52 52.32208 54.31804 38074 ft 437 kts 292°
2026-04-12 18:53 52.34951 54.22896 38067 ft 440 kts 294°
2026-04-12 18:53 52.37760 54.13991 38061 ft 441 kts 293°
2026-04-12 18:54 52.40555 54.05040 38058 ft 441 kts 293°
2026-04-12 18:54 52.43316 53.96113 38051 ft 437 kts 293°
2026-04-12 18:55 52.46030 53.87282 38058 ft 436 kts 293°
2026-04-12 18:55 52.48776 53.78313 38064 ft 439 kts 293°
2026-04-12 18:56 52.51518 53.69321 38059 ft 442 kts 293°
2026-04-12 18:56 52.54251 53.60334 38053 ft 444 kts 292°
2026-04-12 18:57 52.59678 53.42390 38040 ft 438 kts 292°
2026-04-12 18:58 52.62377 53.33406 38059 ft 439 kts 292°
2026-04-12 18:58 52.65094 53.24336 38059 ft 443 kts 292°
2026-04-12 18:59 52.67818 53.15211 38055 ft 444 kts 292°
2026-04-12 18:59 52.70543 53.06047 38044 ft 444 kts 292°
2026-04-12 19:00 52.73229 52.96985 38046 ft 441 kts 292°
2026-04-12 19:00 52.75914 52.87888 38055 ft 441 kts 292°
2026-04-12 19:01 52.78598 52.78756 38051 ft 443 kts 292°
2026-04-12 19:01 52.81289 52.69567 38050 ft 444 kts 292°
2026-04-12 19:02 52.83971 52.60375 38050 ft 443 kts 292°
2026-04-12 19:02 52.86637 52.51204 38053 ft 442 kts 292°
2026-04-12 19:03 52.89290 52.42041 38058 ft 441 kts 291°
2026-04-12 19:03 52.91932 52.32876 38060 ft 441 kts 291°
2026-04-12 19:04 52.94584 52.23641 38060 ft 446 kts 291°
2026-04-12 19:04 52.97368 52.14418 38055 ft 448 kts 295°
2026-04-12 19:05 53.00469 52.05515 38054 ft 449 kts 297°
2026-04-12 19:05 53.03759 51.96689 38068 ft 449 kts 297°
2026-04-12 19:06 53.07052 51.87853 38068 ft 450 kts 297°
2026-04-12 19:06 53.10395 51.79013 38069 ft 453 kts 300°
2026-04-12 19:07 53.13956 51.70355 38068 ft 453 kts 300°
2026-04-12 19:07 53.17538 51.61708 38069 ft 453 kts 300°
2026-04-12 19:08 53.21079 51.53037 38072 ft 452 kts 300°
2026-04-12 19:08 53.24599 51.44323 38073 ft 452 kts 300°
2026-04-12 19:09 53.28106 51.35590 38072 ft 453 kts 300°
2026-04-12 19:09 53.31605 51.26846 38080 ft 453 kts 300°
2026-04-12 19:10 53.35107 51.18067 38083 ft 454 kts 299°
2026-04-12 19:10 53.38594 51.09294 38088 ft 457 kts 299°
2026-04-12 19:11 53.42121 51.00391 38096 ft 459 kts 299°
2026-04-12 19:11 53.45658 50.91434 38095 ft 461 kts 299°
2026-04-12 19:12 53.49198 50.82439 38097 ft 462 kts 299°
2026-04-12 19:12 53.52736 50.73415 38101 ft 463 kts 299°
2026-04-12 19:13 53.56271 50.64366 38109 ft 463 kts 299°